Miscellaneous Local Product
Issued by NWS North Platte, NE

Current Version | Previous Version | Text Only | Print | Product List | Glossary On
Versions: 1 2 3 4 5 6 7 8 9 10 11 12 13 14 15 16 17 18 19 20 21 22 23 24 25 26 27 28 29 30 31 32 33 34 35 36 37 38 39 40 41 42 43 44 45 46 47 48 49 50
000
AXUS43 KLBF 302210
MISLBF


WESTERN AND NORTH CENTRAL NEBRASKA HOURLY WEATHER ROUNDUP
NATIONAL WEATHER SERVICE NORTH PLATTE NE
500 PM CDT SUN AUG 30 2015

NOTE: "FAIR" INDICATES FEW OR NO CLOUDS BELOW 12,000 FEET WITH NO
SIGNIFICANT WEATHER AND/OR OBSTRUCTIONS TO VISIBILITY.

NOTE: STATIONS NOT REPORTING VARIABLES SUCH AS SKY/WEATHER OR
PRESSURE ARE PROVIDED BY THE NEBRASKA DEPARTMENT OF
ROADS...RAWS...AND APRS NETWORKS...AND ARE NOT UNDER
NATIONAL WEATHER SERVICE QUALITY CONTROL.

...OBSERVATIONS IN AND NEAR THE EASTERN PANHANDLE OF NEBRASKA...

CITY           SKY/WX    TMP DP  RH WIND       PRES   REMARKS
PINE RIDGE     SUNNY     99  44  15 S7        29.80F HX  95
CHADRON        SUNNY    102  38  11 S9G16     29.77F HX  96
ALLIANCE       SUNNY     98  39  13 SW15      29.87F HX  93
SIDNEY         SUNNY     98  35  11 SW9G22    29.93F HX  93
CRESCENT LAKE    N/A     99  41  13 SW9G18      N/A  HX  94
BIG SPRINGS      N/A     93  52  24 S14         N/A  HX  90
$$

...OBSERVATIONS IN NORTH CENTRAL NEBRASKA...

CITY           SKY/WX    TMP DP  RH WIND       PRES   REMARKS
VALENTINE      CLOUDY    95  44  17 S26G33    29.82F HX  91
THEDFORD       MOSUNNY   94  44  17 S22       29.90F HX  90
AINSWORTH      MOSUNNY   92  46  20 S23       29.86F
O`NEILL        SUNNY     86  65  48 S16       29.90F
ORD            SUNNY     86  61  42 S15G23    29.92S
BROKEN BOW     SUNNY     87  60  40 S13G25    29.93F
SPRINGVIEW       N/A     94  50  22 SE9G18      N/A  HX  91
SARGENT          N/A     87  57  35 MISG        N/A
CHAMBERS         N/A     86  62  44 E8          N/A
EWING            N/A     79  68  69 S8G15       N/A
$$

...OBSERVATIONS IN SOUTHWEST NEBRASKA AND FAR NORTHEAST COLORADO...

CITY           SKY/WX    TMP DP  RH WIND       PRES   REMARKS
WRAY           CLOUDY    97  40  13 SE20G25   29.94F HX  92
HOLYOKE        FAIR      95  46  18 S15G23    29.93F HX  91
IMPERIAL       SUNNY     95  39  14 S18G25    29.93F HX  91
OGALLALA       SUNNY     94  44  17 S20G28    29.89F HX  90
NORTH PLATTE   SUNNY     92  41  17 S14G26    29.91F
MCCOOK         SUNNY     96  38  13 S17       29.92F HX  91
LEXINGTON      SUNNY     88  59  36 SE17      29.94F
PAXTON           N/A     92  51  24 S12         N/A
BRADY            N/A     91  54  28 CALM        N/A
CALLAWAY         N/A     83  67  57 S12         N/A
$$

...OBSERVATIONS IN CENTRAL LINCOLN COUNTY AREA...

CITY           SKY/WX    TMP DP  RH WIND       PRES   REMARKS
N.P. AIRPORT   SUNNY     92  41  17 S14G26    29.91F
N.P. DOWNTOWN    N/A     93  42  16 S8G18       N/A
N.P. SOUTHEAST   N/A     93  40  16 S10G20      N/A
HILLCREST        N/A     92  39  15 S16G25      N/A
$$

...SOME OBSERVATIONS FROM AROUND THE REGION...

CITY           SKY/WX    TMP DP  RH WIND       PRES   REMARKS
DENVER         MOSUNNY   95  28   9 S6        30.01F
LARAMIE        PTSUNNY   84  36  18 NE7       30.14F
CHEYENNE       MOSUNNY   88  35  15 SW10      30.04F
SCOTTSBLUFF    SUNNY     97  47  18 E12       29.86F HX  93
RAPID CITY     MOSUNNY   97  52  21 S15       29.73F HX  94
PIERRE         MOSUNNY   98  52  21 S18G28    29.69F HX  95
WINNER         FAIR      95  47  19 S24G35    29.78F HX  91
SIOUX FALLS    CLOUDY    76  65  68 S10       29.91F
OMAHA          PTSUNNY   76  66  71 S8        29.99F
GRAND ISLAND   SUNNY     79  63  57 S14       29.98S
KANSAS CITY    MOSUNNY   84  63  49 E7        29.98F
WICHITA        MOSUNNY   81  64  56 SE8       29.97F
HAYS           SUNNY     90  52  27 S13       29.96S
LIBERAL        SUNNY     91  39  16 S7        30.00F
GOODLAND       SUNNY     91  39  16 S20G26    29.98F HAZE
$$



USA.gov is the U.S. government's official web portal to all federal, state and local government web resources and services.